This demonstration page uses our WeatherBlox Daily Observations layout. Learn more.

Left ArrowRight Arrow

Hourly Observations for August 7, 2020

Temp ( °F °C ) Dew Point ( °F °C ) Humidity (%) Winds ( mph kmh ) Pressure ( in mb ) Visibility ( mi km ) Precip ( " mm )
12:54 am 00:54 Clear 73 22.8 68 20 84 84 SSE 8 13 29.92 1013 9 14.48406 0 0
1:54 am 01:54 Clear 73 22.8 68 20 84 84 SE 9 15 29.93 1013 9 14.48406 0 0
2:54 am 02:54 Mostly Clear 72 22.2 67 19.4 84 84 SSE 8 13 29.94 1014 9 14.48406 0 0
3:54 am 03:54 Clear 71 21.7 67 19.4 87 87 SSE 9 15 29.92 1013 9 14.48406 0 0
4:43 am 04:43 Mostly Cloudy 71 21.7 67 19.4 87 87 SE 7 11 29.91 1013 9 14.48406 0 0
4:54 am 04:54 Partly Cloudy 71 21.7 67 19.4 87 87 SE 8 13 29.91 1013 9 14.48406 0 0
5:54 am 05:54 Cloudy 72 22.2 68 20 87 87 SSE 9 15 29.91 1013 9 14.48406 0 0
6:09 am 06:09 Cloudy 72 22.2 68 20 87 87 SE 10 17 29.91 1013 9 14.48406 0 0
6:19 am 06:19 Cloudy 72 22.2 68 20 87 87 SSE 12 19 29.91 1013 9 14.48406 0 0
6:54 am 06:54 Cloudy 72 22.2 68 20 87 87 SE 12 19 29.92 1013 7 11.26538 0 0
7:04 am 07:04 Cloudy 72 22.2 68 20 87 87 SE 10 17 29.92 1013 7 11.26538 0 0
7:54 am 07:54 Cloudy 73 22.8 68 20 84 84 SSE 12 19 29.92 1013 7 11.26538 0 0
8:42 am 08:42 Cloudy 74 23.3 69 20.6 85 85 SE 12 19 29.89 1012 7 11.26538 0 0
8:54 am 08:54 Cloudy 75 23.9 69 20.6 82 82 SE 13 20 29.91 1013 8 12.87472 0 0
9:54 am 09:54 Cloudy 75 23.9 69 20.6 82 82 SE 13 20 29.91 1013 8 12.87472 0 0
10:16 am 10:16 Cloudy 77 25 69 20.6 77 77 SE 15 24 29.88 1012 8 12.87472 0 0
10:54 am 10:54 Cloudy 78 25.6 70 21.1 76 76 SSE 13 20 29.91 1013 8 12.87472 0 0
11:54 am 11:54 Cloudy 80 26.7 71 21.7 74 74 SSE 12 19 29.93 1013 8 12.87472 0 0
12:17 pm 12:17 Cloudy 82 27.8 70 21.1 67 67 S 15 24 29.89 1012 8 12.87472 0 0
12:54 pm 12:54 Cloudy 82 27.8 70 21.1 67 67 S 14 22 29.91 1013 9 14.48406 0 0
1:54 pm 13:54 Mostly Cloudy 85 29.4 71 21.7 63 63 S 18 30 29.88 1012 9 14.48406 0 0
2:06 pm 14:06 Mostly Cloudy 85 29.4 71 21.7 63 63 SSE 21 33 29.84 1010 9 14.48406 0 0
2:16 pm 14:16 Mostly Cloudy 85 29.4 71 21.7 63 63 S 17 28 29.84 1010 9 14.48406 0 0
2:26 pm 14:26 Mostly Cloudy 83 28.3 71 21.7 67 67 S 21 33 29.84 1011 9 14.48406 0 0
2:54 pm 14:54 Partly Cloudy 82 27.8 70 21.1 67 67 S 18 30 29.87 1012 9 14.48406 0 0
3:54 pm 15:54 Sunny 82 27.8 70 21.1 67 67 SSE 17 28 29.87 1012 9 14.48406 0 0
4:54 pm 16:54 Sunny 85 29.4 72 22.2 65 65 S 17 28 29.86 1011 9 14.48406 0 0
5:54 pm 17:54 Partly Cloudy 85 29.4 71 21.7 63 63 S 20 31 29.86 1011 9 14.48406 0 0
6:54 pm 18:54 Sunny 84 28.9 71 21.7 65 65 S 17 28 29.85 1011 9 14.48406 0 0
7:54 pm 19:54 Sunny 82 27.8 71 21.7 69 69 SSE 14 22 29.85 1011 9 14.48406 0 0
8:54 pm 20:54 Clear 81 27.2 71 21.7 72 72 SSE 15 24 29.85 1011 10 16.0934 0 0
9:54 pm 21:54 Clear 80 26.7 71 21.7 74 74 SE 13 20 29.87 1012 10 16.0934 0 0
10:54 pm 22:54 Partly Cloudy 79 26.1 71 21.7 77 77 SSE 15 24 29.88 1012 10 16.0934 0 0
11:54 pm 23:54 Mostly Cloudy 79 26.1 71 21.7 77 77 SSE 17 28 29.88 1012 10 16.0934 0 0

Powered by AerisWeather